When you browse on this site, cookies collect data to enhance your experience and personalize the content and advertising you see.
Visit our Privacy Policy to learn more. By continuing to use the site, you agree to this use of cookies and data.
  • In Österreich
  • Länderverzeichnis
  • Für 7 Tage
  • Wassertemperatur
  • Satellitenkarten
  • Wetterkarte
  • News
  • Widgets
  • user-avatar
    Anmelden

    Stündliche Wetter Kannyn

    Heute, 24 März, Sonntag

    Zeit Temperatur Niederschläge Wind Luftdruck Luftfeuchtigkeit
    00:00 -2°C° 0 mm 5 m/S 755 mmHg 55%
    01:00 -2°C° 0 mm 4 m/S 756 mmHg 56%
    02:00 -2°C° 0 mm 4 m/S 756 mmHg 57%
    03:00 -2°C° 0 mm 4 m/S 756 mmHg 56%
    04:00 -2°C° 0 mm 4 m/S 756 mmHg 55%
    05:00 -2°C° 0 mm 3 m/S 756 mmHg 54%
    06:00 -2°C° 0 mm 3 m/S 756 mmHg 53%
    07:00 0°C° 0 mm 3 m/S 756 mmHg 45%
    08:00 +1°C° 0 mm 4 m/S 756 mmHg 38%
    09:00 +3°C° 0 mm 3 m/S 756 mmHg 26%
    10:00 +5°C° 0 mm 3 m/S 756 mmHg 24%
    11:00 +7°C° 0 mm 3 m/S 756 mmHg 22%
    12:00 +9°C° 0 mm 2 m/S 755 mmHg 20%
    13:00 +9°C° 0 mm 3 m/S 755 mmHg 22%
    14:00 +9°C° 0 mm 3 m/S 754 mmHg 24%
    15:00 +10°C° 0 mm 3 m/S 753 mmHg 26%
    16:00 +8°C° 0 mm 4 m/S 753 mmHg 32%
    17:00 +7°C° 0 mm 4 m/S 753 mmHg 38%
    18:00 +5°C° 0 mm 5 m/S 753 mmHg 44%
    19:00 +3°C° 0 mm 5 m/S 753 mmHg 49%
    20:00 +2°C° 0 mm 5 m/S 753 mmHg 54%
    21:00 +1°C° 0 mm 4 m/S 753 mmHg 61%
    22:00 +1°C° 0 mm 4 m/S 753 mmHg 60%
    23:00 0°C° 0 mm 5 m/S 753 mmHg 60%

    Morgen, 25 März, Montag

    Zeit Temperatur Niederschläge Wind Luftdruck Luftfeuchtigkeit
    00:00 0°C° 0 mm 5 m/S 753 mmHg 59%
    01:00 0°C° 0 mm 5 m/S 753 mmHg 59%
    02:00 0°C° 0 mm 5 m/S 753 mmHg 58%
    03:00 +1°C° 0 mm 6 m/S 753 mmHg 58%
    04:00 +1°C° 0 mm 6 m/S 753 mmHg 62%
    05:00 +1°C° 0 mm 6 m/S 753 mmHg 67%
    06:00 +1°C° 0 mm 6 m/S 752 mmHg 71%
    07:00 +3°C° 0 mm 6 m/S 752 mmHg 69%
    08:00 +6°C° 0 mm 5 m/S 752 mmHg 66%
    09:00 +7°C° 0 mm 5 m/S 752 mmHg 64%
    10:00 +9°C° 0 mm 5 m/S 752 mmHg 61%
    11:00 +10°C° 0 mm 5 m/S 752 mmHg 58%
    12:00 +12°C° 0 mm 4 m/S 752 mmHg 56%
    13:00 +12°C° 0 mm 5 m/S 752 mmHg 56%
    14:00 +13°C° 0 mm 5 m/S 751 mmHg 56%
    15:00 +13°C° 0 mm 6 m/S 751 mmHg 56%
    16:00 +11°C° 0 mm 6 m/S 751 mmHg 60%
    17:00 +10°C° 0 mm 6 m/S 751 mmHg 65%
    18:00 +10°C° 0 mm 6 m/S 750 mmHg 69%
    19:00 +9°C° 0 mm 6 m/S 751 mmHg 71%
    20:00 +8°C° 0 mm 6 m/S 751 mmHg 73%
    21:00 +8°C° 0 mm 6 m/S 751 mmHg 74%
    22:00 +8°C° 0 mm 6 m/S 751 mmHg 75%
    23:00 +7°C° 0 mm 6 m/S 751 mmHg 76%

    übermorgen, 26 März, Dienstag

    Zeit Temperatur Niederschläge Wind Luftdruck Luftfeuchtigkeit
    00:00 +7°C° 0 mm 6 m/S 751 mmHg 77%
    01:00 +7°C° 0 mm 6 m/S 751 mmHg 79%
    02:00 +7°C° 0 mm 5 m/S 751 mmHg 82%
    03:00 +7°C° 0 mm 5 m/S 751 mmHg 84%
    04:00 +7°C° 0 mm 5 m/S 751 mmHg 84%
    05:00 +7°C° 0 mm 5 m/S 751 mmHg 83%
    06:00 +7°C° 0 mm 5 m/S 751 mmHg 83%
    07:00 +8°C° 0 mm 4 m/S 752 mmHg 76%
    08:00 +10°C° 0 mm 4 m/S 752 mmHg 69%
    09:00 +11°C° 0 mm 4 m/S 753 mmHg 61%
    10:00 +12°C° 0 mm 4 m/S 753 mmHg 52%
    11:00 +13°C° 0 mm 4 m/S 753 mmHg 43%
    12:00 +15°C° 0 mm 4 m/S 753 mmHg 34%
    13:00 +15°C° 0 mm 4 m/S 753 mmHg 31%
    14:00 +17°C° 0 mm 4 m/S 753 mmHg 29%
    15:00 +16°C° 0 mm 5 m/S 753 mmHg 26%
    16:00 +15°C° 0 mm 4 m/S 753 mmHg 31%
    17:00 +14°C° 0 mm 3 m/S 753 mmHg 35%
    18:00 +14°C° 0 mm 2 m/S 753 mmHg 40%
    19:00 +12°C° 0 mm 2 m/S 754 mmHg 42%
    20:00 +10°C° 0 mm 3 m/S 754 mmHg 45%
    21:00 +9°C° 0 mm 3 m/S 754 mmHg 48%
    22:00 +8°C° 0 mm 3 m/S 754 mmHg 46%
    23:00 +8°C° 0 mm 3 m/S 754 mmHg 45%

    27 März, Mittwoch

    Zeit Temperatur Niederschläge Wind Luftdruck Luftfeuchtigkeit
    00:00 +8°C° 0 mm 3 m/S 754 mmHg 43%
    01:00 +8°C° 0 mm 3 m/S 754 mmHg 43%
    02:00 +8°C° 0 mm 3 m/S 753 mmHg 44%
    03:00 +8°C° 0 mm 3 m/S 753 mmHg 44%
    04:00 +7°C° 0 mm 4 m/S 752 mmHg 49%
    05:00 +8°C° 0 mm 5 m/S 752 mmHg 53%
    06:00 +9°C° 0 mm 5 m/S 751 mmHg 58%
    07:00 +10°C° 0 mm 6 m/S 751 mmHg 61%
    08:00 +11°C° 0 mm 7 m/S 751 mmHg 65%
    09:00 +12°C° 0 mm 8 m/S 750 mmHg 69%
    10:00 +12°C° 0 mm 9 m/S 750 mmHg 67%
    11:00 +13°C° 0 mm 10 m/S 749 mmHg 66%
    12:00 +14°C° 0 mm 10 m/S 749 mmHg 65%
    13:00 +16°C° 0 mm 10 m/S 748 mmHg 61%
    14:00 +16°C° 0 mm 10 m/S 747 mmHg 57%
    15:00 +17°C° 0 mm 10 m/S 747 mmHg 54%
    16:00 +16°C° 0 mm 10 m/S 746 mmHg 54%
    17:00 +16°C° 0 mm 9 m/S 746 mmHg 55%
    18:00 +15°C° 0 mm 9 m/S 746 mmHg 56%
    19:00 +13°C° 0 mm 9 m/S 746 mmHg 63%
    20:00 +12°C° 0 mm 8 m/S 747 mmHg 70%
    21:00 +11°C° 0 mm 7 m/S 747 mmHg 77%
    22:00 +10°C° 0 mm 6 m/S 748 mmHg 79%
    23:00 +10°C° 0 mm 5 m/S 748 mmHg 81%

    28 März, Donnerstag

    Zeit Temperatur Niederschläge Wind Luftdruck Luftfeuchtigkeit
    00:00 +10°C° 0 mm 4 m/S 748 mmHg 83%
    01:00 +10°C° 0 mm 4 m/S 748 mmHg 86%
    02:00 +8°C° 0 mm 4 m/S 748 mmHg 90%
    03:00 +7°C° 0 mm 4 m/S 749 mmHg 93%
    04:00 +7°C° 0.1 mm 4 m/S 749 mmHg 93%
    05:00 +6°C° 0.1 mm 4 m/S 750 mmHg 93%
    06:00 +5°C° 0.1 mm 5 m/S 750 mmHg 93%
    07:00 +5°C° 0.6 mm 5 m/S 751 mmHg 91%
    08:00 +3°C° 0.6 mm 5 m/S 751 mmHg 90%
    09:00 +3°C° 0.6 mm 5 m/S 752 mmHg 88%
    10:00 +4°C° 0.2 mm 4 m/S 752 mmHg 85%
    11:00 +5°C° 0.2 mm 4 m/S 752 mmHg 81%
    12:00 +5°C° 0.2 mm 3 m/S 752 mmHg 78%
    13:00 +5°C° 0.1 mm 3 m/S 752 mmHg 77%
    14:00 +5°C° 0.1 mm 3 m/S 751 mmHg 76%
    15:00 +5°C° 0.1 mm 3 m/S 751 mmHg 75%
    16:00 +5°C° 0 mm 3 m/S 751 mmHg 75%
    17:00 +5°C° 0 mm 3 m/S 751 mmHg 76%
    18:00 +5°C° 0 mm 3 m/S 751 mmHg 77%
    19:00 +4°C° 0 mm 3 m/S 751 mmHg 81%
    20:00 +5°C° 0 mm 2 m/S 752 mmHg 85%
    21:00 +4°C° 0 mm 2 m/S 752 mmHg 90%
    22:00 +4°C° 0 mm 2 m/S 752 mmHg 90%
    23:00 +4°C° 0 mm 2 m/S 752 mmHg 91%

    29 März, Freitag

    Zeit Temperatur Niederschläge Wind Luftdruck Luftfeuchtigkeit
    00:00 +4°C° 0 mm 2 m/S 752 mmHg 91%
    01:00 +3°C° 0.1 mm 2 m/S 752 mmHg 90%
    02:00 +3°C° 0.1 mm 2 m/S 751 mmHg 89%
    03:00 +3°C° 0.1 mm 2 m/S 751 mmHg 87%
    04:00 +3°C° 0 mm 2 m/S 751 mmHg 82%
    05:00 +3°C° 0 mm 2 m/S 751 mmHg 76%
    06:00 +2°C° 0 mm 3 m/S 750 mmHg 70%
    07:00 +3°C° 0 mm 3 m/S 750 mmHg 61%
    08:00 +4°C° 0 mm 3 m/S 751 mmHg 51%
    09:00 +5°C° 0 mm 4 m/S 751 mmHg 42%
    10:00 +6°C° 0 mm 5 m/S 751 mmHg 39%
    11:00 +7°C° 0 mm 5 m/S 751 mmHg 37%
    12:00 +8°C° 0 mm 6 m/S 751 mmHg 34%
    13:00 +8°C° 0 mm 6 m/S 750 mmHg 39%
    14:00 +8°C° 0 mm 6 m/S 750 mmHg 45%
    15:00 +7°C° 0 mm 6 m/S 750 mmHg 50%
    16:00 +6°C° 0.1 mm 5 m/S 750 mmHg 54%
    17:00 +5°C° 0.1 mm 4 m/S 750 mmHg 58%
    18:00 +4°C° 0.1 mm 3 m/S 751 mmHg 62%
    19:00 +4°C° 0 mm 2 m/S 751 mmHg 66%
    20:00 +3°C° 0 mm 2 m/S 752 mmHg 69%
    21:00 +3°C° 0 mm 1 m/S 753 mmHg 72%
    22:00 +2°C° 0 mm 2 m/S 753 mmHg 67%
    23:00 +1°C° 0 mm 3 m/S 753 mmHg 63%
    Mehr zeigen